sat.trackr.live / text

‹ back to catalog

DIRECTV 15

NORAD 40663 · 2015-026A

PAYLOAD ACTIVE UNKNOWN

§ Identity

Operator
Country
US
Launch date
2015-05-27
Launch site
FRGUI
Launch vehicle
Mass (kg)
RCS (m²)
42.71

Purposes: comms

External: N2YO · Heavens-Above · Gunter

§ Orbital elements

Epoch: 2026-05-25T03:15:18.125280Z

Period
1,436.10 min
Inclination
0.0171°
Eccentricity
0.0000160
Mean motion
1.00271241 rev/d
Perigee alt
35,786.1 km
Apogee alt
35,787.4 km
Semi-major
42,164.9 km
B*
0.0000e+0
RAAN
336.4768°
Arg perigee
134.1688°
Mean anomaly
78.0234°
Rev number
4,023

§ Raw data

DIRECTV 151 40663U 15026A   26145.13562645 -.00000105  00000+0  00000+0 0  99982 40663   0.0171 336.4768 0000160 134.1688  78.0234  1.00271241 40236

JSON: /api/v1/satellites/40663 · /tle

For live sub-satellite position, see the globe view (requires WebGL).

§ Visibility from observer

Set your observer location to see the next 7 days of passes ≥ 10°. The values pass through the URL so the page stays shareable.

No JS? Fill the form by hand. The geolocation button needs JavaScript.